Location: Edisto_Beach
(32.4790°N, 80.3350°W)
Time: 10:01:53
(UTC-05:00)

Amateur Radio Satellites - All Passes

Search period start: 26 November 2014 09:31
Search period end: 27 November 2014 09:31
Location: Edisto_Beach, 32.4790°N, 80.3350°W

Satellite Date Start Highest point End Downlink Frequencies (MHz)
Time Altitude Azimuth
DUCHIFAT 1 26 Nov 09:34:03 09:36:24 15° 68° (ENE) 09:38:45 145.980
AAUSAT CUBESAT 2 26 Nov 09:36:28 09:40:43 88° 102° (ESE) 09:44:57 437.432
DOVE 4 26 Nov 09:37:20 09:41:31 67° 101° (E) 09:45:51 437.250
DELFI C3 26 Nov 09:40:46 09:44:36 36° 98° (E) 09:48:25 145.870
UWE-3 26 Nov 09:44:25 09:47:51 23° 97° (E) 09:51:20 435.000/436.395/437.385
CUBEBUG 2 26 Nov 09:44:29 09:48:09 27° 97° (E) 09:51:54 437.445
CANX-2 26 Nov 09:48:46 09:52:42 36° 287° (WNW) 09:56:39 2200.000
DX 1 26 Nov 09:49:45 09:53:58 49° 100° (E) 09:58:08 434.975-435.025
COMPASS 1 26 Nov 09:52:03 09:56:11 50° 285° (WNW) 10:00:17 437.405
NANOSAT C BR1 26 Nov 09:52:16 09:55:43 24° 71° (ENE) 09:59:10 145.865
HUMSAT D 26 Nov 10:00:48 10:03:35 17° 95° (E) 10:06:22 437.325/437.525
QB50P1 26 Nov 10:01:50 10:05:37 32° 73° (ENE) 10:09:24 145.935-145.965
TIGRISAT 26 Nov 10:03:24 10:07:31 49° 75° (ENE) 10:11:38 435.000
BUGSAT 1 26 Nov 10:10:56 10:14:47 34° 73° (ENE) 10:18:37 437.445
CINEMA 3 26 Nov 10:11:22 10:15:37 80° 283° (WNW) 10:20:01 145.822/145.860
UNISAT 6 26 Nov 10:17:03 10:21:19 77° 77° (ENE) 10:25:35 437.425
HO-68 26 Nov 10:17:42 10:24:14 40° 293° (WNW) 10:30:44 435.675
ZACube-1 26 Nov 10:18:20 10:22:29 51° 100° (E) 10:26:43 437.345
VELOX 1 26 Nov 10:20:58 10:24:54 31° 98° (E) 10:28:48 145.980
GOMX 1 26 Nov 10:21:13 10:24:39 25° 288° (WNW) 10:28:10 467.674
ESTCUBE 1 26 Nov 10:22:56 10:24:11 11° 93° (E) 10:25:26 437.505/2401.250
CUTE 1.7 & AOD 2 26 Nov 10:24:31 10:27:09 16° 291° (WNW) 10:29:46 437.475
POPSAT HIP 1 26 Nov 10:26:10 10:30:23 65° 76° (ENE) 10:34:37 437.405
ANTELSAT 26 Nov 10:46:04 10:50:10 45° 260° (W) 10:54:15 437.575/2403.000
AISAT 26 Nov 10:47:02 10:51:26 69° 102° (ESE) 10:55:49 437.250
UKube-1 26 Nov 10:50:20 10:54:07 30° 288° (WNW) 10:57:54 .
GONETS M04 26 Nov 10:52:18 10:54:49 11° 295° (WNW) 10:57:21
FUNcube-1 26 Nov 10:53:18 10:57:29 57° 284° (WNW) 11:01:44 145.935
CUBEBUG 1 26 Nov 10:59:16 11:03:04 29° 97° (E) 11:06:50 437.445
POLYITAN 1 26 Nov 11:00:06 11:04:11 45° 260° (W) 11:08:16 437.675
Oscar 11 26 Nov 11:02:02 11:05:07 19° 290° (WNW) 11:08:12 145.826/435.025
QB50P2 26 Nov 11:02:02 11:06:04 42° 261° (W) 11:10:08 145.880/145.840
DUCHIFAT 1 26 Nov 11:08:00 11:11:56 36° 261° (W) 11:15:52 145.980
DELFI C3 26 Nov 11:17:24 11:19:33 14° 292° (WNW) 11:21:42 145.870
UWE-3 26 Nov 11:20:55 11:24:16 23° 289° (WNW) 11:27:41 435.000/436.395/437.385
CUBEBUG 2 26 Nov 11:21:36 11:24:40 20° 289° (WNW) 11:27:47 437.445
50 SAT 26 Nov 11:22:04 11:26:01 51° 285° (WNW) 11:29:58 437.505
DX 1 26 Nov 11:28:12 11:29:44 12° 294° (WNW) 11:31:15 434.975-435.025
NANOSAT C BR1 26 Nov 11:28:15 11:31:31 21° 264° (W) 11:34:46 145.865
HUMSAT D 26 Nov 11:35:45 11:39:22 29° 287° (WNW) 11:43:01 437.325/437.525
QB50P1 26 Nov 11:38:53 11:41:32 16° 265° (W) 11:44:11 145.935-145.965
BUGSAT 1 26 Nov 11:47:47 11:50:19 15° 265° (W) 11:52:51 437.445
ESTCUBE 1 26 Nov 11:56:54 12:01:18 52° 286° (WNW) 12:05:40 437.505/2401.250
ZACube-1 26 Nov 11:57:25 11:58:25 11° 293° (WNW) 11:59:25 437.345
VELOX 1 26 Nov 11:58:13 12:01:13 18° 291° (WNW) 12:04:12 145.980
TISAT 1 26 Nov 12:10:40 12:14:44 47° 100° (E) 12:18:46 437.305
SPROUT 26 Nov 12:21:31 12:25:44 57° 100° (E) 12:29:55 437.525
DANDE 26 Nov 12:24:35 12:25:55 13° 95° (E) 12:27:11 436.750
VERMONT LUNAR 26 Nov 12:34:48 12:37:00 16° 141° (SE) 12:39:13 437.305
CUBEBUG 1 26 Nov 12:36:11 12:39:12 19° 291° (WNW) 12:42:13 437.445
SO-50 26 Nov 12:51:01 12:55:51 57° 60° (ENE) 13:00:39 436.795
Oscar 19 26 Nov 12:52:11 12:57:08 54° 74° (ENE) 13:02:07 437.125/150
ITUPSAT 1 26 Nov 13:08:12 13:12:16 27° 97° (E) 13:16:18 437.325
YUBILEINY 26 Nov 13:14:07 13:22:05 39° 77° (ENE) 13:29:59 435.215
SWISSCUBE 26 Nov 13:18:38 13:23:08 40° 99° (E) 13:27:36 437.505
CUSAT 1 26 Nov 13:39:15 13:41:19 19° 281° (W) 13:43:17 437.405
AUBIESAT-1 26 Nov 13:43:02 13:47:58 83° 107° (ESE) 13:52:41 437.475
ITAMSAT 1 26 Nov 13:45:56 13:51:07 70° 75° (ENE) 13:56:19 435.822/435.867
M-CUBED/EXP-1 PRIME 26 Nov 13:48:35 13:53:31 79° 288° (WNW) 13:58:17 437.505
TISAT 1 26 Nov 13:48:54 13:50:06 11° 293° (WNW) 13:51:18 437.305
BEESAT 26 Nov 13:49:22 13:54:11 83° 103° (ESE) 13:58:57 436.000
PHONESAT 2.4 26 Nov 14:02:11 14:05:49 57° 149° (SSE) 14:09:28 2401.200-2431.200
RS-15 26 Nov 14:05:27 14:11:38 17° 100° (E) 14:17:43 29.354- 29.394
KKS-1 26 Nov 14:09:31 14:13:07 24° 97° (E) 14:16:41 437.445
VERMONT LUNAR 26 Nov 14:11:32 14:15:08 82° 332° (NNW) 14:18:46 437.305
HORYU 2 26 Nov 14:20:22 14:24:17 32° 72° (ENE) 14:28:12 437.375
Gurwin Techsat 1B 26 Nov 14:20:37 14:25:56 85° 76° (ENE) 14:31:16 435.225
MaSat-1 26 Nov 14:27:34 14:30:22 30° 110° (ESE) 14:32:56 437.345
SO-50 26 Nov 14:33:40 14:35:53 13° 253° (WSW) 14:38:05 436.795
Oscar 19 26 Nov 14:34:18 14:36:44 13° 267° (W) 14:39:10 437.125/150
ITUPSAT 1 26 Nov 14:46:08 14:50:00 25° 290° (WNW) 14:53:50 437.325
SWISSCUBE 26 Nov 14:57:33 15:00:38 17° 293° (WNW) 15:03:42 437.505
STARS 26 Nov 15:03:38 15:08:02 72° 102° (ESE) 15:12:24 437.465
YUBILEINY 26 Nov 15:10:58 15:18:41 38° 273° (W) 15:26:24 435.215
AO-7 26 Nov 15:17:00 15:25:00 56° 68° (ENE) 15:33:03 29.400- 29.500
ITAMSAT 1 26 Nov 15:30:12 15:30:59 10° 268° (W) 15:31:46 435.822/435.867
PHONESAT 2.4 26 Nov 15:41:20 15:44:45 34° 344° (NNW) 15:48:10 2401.200-2431.200
O/OREOS (USA 219) 26 Nov 15:42:28 15:46:34 35° 67° (ENE) 15:50:41 437.305
KKS-1 26 Nov 15:46:05 15:49:37 24° 290° (WNW) 15:53:09 437.445
VERMONT LUNAR 26 Nov 15:50:50 15:53:56 26° 349° (N) 15:57:03 437.305
HORYU 2 26 Nov 15:58:01 16:00:58 18° 265° (W) 16:03:56 437.375
RS-15 26 Nov 16:11:22 16:22:25 90° 296° (WNW) 16:33:23 29.354- 29.394
JAS-2 26 Nov 16:30:47 16:38:07 59° 72° (ENE) 16:45:48 435.910
Cubesat XI-IV 26 Nov 16:32:58 16:34:51 12° 63° (ENE) 16:36:43 437.490
MOZHAYETS 4 26 Nov 16:53:49 16:58:14 41° 99° (E) 17:02:37
CUTE-I 26 Nov 17:11:08 17:15:41 29° 69° (ENE) 17:20:15 437.470
AO-7 26 Nov 17:11:23 17:18:01 27° 263° (W) 17:24:44 29.400- 29.500
PHONESAT 2.4 26 Nov 17:21:09 17:24:10 23° 1° (N) 17:27:11 2401.200-2431.200
O/OREOS (USA 219) 26 Nov 17:22:57 17:25:37 16° 260° (W) 17:28:17 437.305
VERMONT LUNAR 26 Nov 17:30:06 17:33:06 24° 7° (N) 17:36:05 437.305
PRISM 26 Nov 17:53:17 17:57:00 30° 98° (E) 18:00:41 437.425
Cubesat XI-IV 26 Nov 18:08:54 18:14:15 73° 258° (WSW) 18:19:37 437.490
JAS-2 26 Nov 18:17:32 18:23:24 25° 267° (W) 18:29:32 435.910
RS-15 26 Nov 18:28:06 18:36:18 24° 320° (NW) 18:44:35 29.354- 29.394
MOZHAYETS 4 26 Nov 18:32:20 18:35:04 16° 292° (WNW) 18:37:48
CUBESAT XI-V 26 Nov 18:37:06 18:41:23 36° 98° (E) 18:45:37 437.345
BEESAT 3 26 Nov 18:45:10 18:47:02 13° 108° (ESE) 18:48:55 437.485
PCSat 26 Nov 18:49:55 18:54:51 38° 109° (ESE) 18:59:49 145.827
CUTE-I 26 Nov 18:51:05 18:55:38 28° 263° (W) 19:00:12 437.470
AIST 1 26 Nov 18:54:00 18:57:07 19° 88° (E) 19:00:15
HO-68 26 Nov 18:56:33 19:00:26 16° 59° (ENE) 19:04:19 435.675
PHONESAT 2.4 26 Nov 19:00:02 19:03:33 39° 18° (NNE) 19:07:03 2401.200-2431.200
BEESAT 2 26 Nov 19:00:10 19:02:57 18° 109° (ESE) 19:05:46 435.950
GONETS M04 26 Nov 19:04:14 19:12:33 44° 78° (ENE) 19:20:45
VERMONT LUNAR 26 Nov 19:08:26 19:12:01 57° 23° (NNE) 19:15:36 437.305
STRAND 1 26 Nov 19:23:17 19:28:23 78° 285° (WNW) 19:33:27 437.568
PRISM 26 Nov 19:29:29 19:32:17 18° 291° (WNW) 19:35:05 437.425
AIST 2 26 Nov 19:37:11 19:40:28 23° 110° (ESE) 19:43:49 435.215
CUTE 1.7 & AOD 2 26 Nov 19:37:58 19:40:14 14° 68° (ENE) 19:42:30 437.475
GOMX 1 26 Nov 19:48:19 19:51:03 15° 69° (ENE) 19:53:41 467.674
SEEDS 26 Nov 20:08:34 20:12:09 29° 72° (ENE) 20:15:46 437.485
CUBESAT XI-V 26 Nov 20:15:26 20:18:30 18° 292° (WNW) 20:21:33 437.345
Oscar 11 26 Nov 20:17:38 20:19:41 13° 68° (ENE) 20:21:44 145.826/435.025
BRITE-PL 26 Nov 20:18:20 20:23:15 49° 75° (ENE) 20:27:48 437.365/2234.400
BEESAT 3 26 Nov 20:20:59 20:24:50 40° 302° (WNW) 20:28:46 437.485
AAUSAT CUBESAT 2 26 Nov 20:23:46 20:27:27 32° 73° (ENE) 20:31:09 437.432
DELFI C3 26 Nov 20:27:04 20:29:02 13° 68° (ENE) 20:31:00 145.870
AIST 1 26 Nov 20:30:51 20:34:33 26° 282° (WNW) 20:38:16
PCSat 26 Nov 20:33:58 20:38:19 24° 304° (NW) 20:42:42 145.827
CANX-2 26 Nov 20:36:59 20:41:12 88° 78° (ENE) 20:45:26 2200.000
BEESAT 2 26 Nov 20:37:20 20:40:58 30° 304° (WNW) 20:44:40 435.950
DOVE 4 26 Nov 20:38:50 20:43:12 41° 74° (ENE) 20:47:21 437.250
PHONESAT 2.4 26 Nov 20:38:50 20:42:22 43° 213° (SSW) 20:45:53 2401.200-2431.200
COMPASS 1 26 Nov 20:39:09 20:43:13 58° 76° (ENE) 20:47:20 437.405
HO-68 26 Nov 20:40:01 20:47:12 84° 255° (WSW) 20:54:26 435.675
UWE-3 26 Nov 20:40:01 20:41:15 11° 68° (ENE) 20:42:29 435.000/436.395/437.385
CUBEBUG 2 26 Nov 20:40:26 20:42:35 14° 69° (ENE) 20:44:43 437.445
DX 1 26 Nov 20:41:35 20:45:08 25° 70° (ENE) 20:48:41 434.975-435.025
VERMONT LUNAR 26 Nov 20:47:21 20:50:19 24° 217° (SW) 20:53:17 437.305
GONETS M04 26 Nov 21:01:28 21:09:01 34° 274° (W) 21:16:32
CINEMA 3 26 Nov 21:08:59 21:13:18 53° 75° (ENE) 21:17:28 145.822/145.860
ZACube-1 26 Nov 21:11:03 21:14:23 23° 71° (ENE) 21:17:40 437.345
CUTE 1.7 & AOD 2 26 Nov 21:11:56 21:15:49 36° 262° (W) 21:19:43 437.475
AIST 2 26 Nov 21:15:25 21:18:57 26° 305° (NW) 21:22:33 435.215
VELOX 1 26 Nov 21:15:32 21:18:29 18° 68° (ENE) 21:21:26 145.980
GOMX 1 26 Nov 21:24:14 21:28:52 42° 260° (W) 21:33:13 467.674
UKube-1 26 Nov 21:40:23 21:44:41 65° 258° (WSW) 21:49:02 .
AISAT 26 Nov 21:41:02 21:45:06 35° 72° (ENE) 21:49:10 437.250
FUNcube-1 26 Nov 21:44:55 21:49:05 61° 76° (ENE) 21:53:12 145.935
SEEDS 26 Nov 21:45:12 21:47:58 17° 265° (W) 21:50:46 437.485
Oscar 11 26 Nov 21:51:23 21:55:27 41° 261° (W) 21:59:32 145.826/435.025
CUBEBUG 1 26 Nov 21:52:31 21:55:06 15° 68° (ENE) 21:57:41 437.445
BRITE-PL 26 Nov 21:59:13 22:01:49 14° 265° (W) 22:04:21 437.365/2234.400
DELFI C3 26 Nov 22:00:13 22:03:58 36° 262° (W) 22:07:45 145.870
AAUSAT CUBESAT 2 26 Nov 22:00:44 22:03:10 15° 266° (W) 22:05:37 437.432
TIGRISAT 26 Nov 22:00:55 22:03:36 16° 95° (E) 22:06:19 435.000
50 SAT 26 Nov 22:06:26 22:10:21 51° 75° (ENE) 22:14:16 437.505
UWE-3 26 Nov 22:13:16 22:17:23 47° 260° (W) 22:21:26 435.000/436.395/437.385
UNISAT 6 26 Nov 22:14:16 22:17:51 23° 97° (E) 22:21:29 437.425
CUBEBUG 2 26 Nov 22:14:57 22:18:58 38° 261° (W) 22:22:54 437.445
DX 1 26 Nov 22:17:48 22:21:15 23° 263° (W) 22:24:43 434.975-435.025
POPSAT HIP 1 26 Nov 22:17:53 22:20:22 15° 95° (E) 22:22:50 437.405
DOVE 4 26 Nov 22:18:33 22:21:02 14° 265° (W) 22:23:27 437.250
HUMSAT D 26 Nov 22:23:06 22:27:14 75° 258° (WSW) 22:31:22 437.325/437.525
HO-68 26 Nov 22:34:24 22:35:39 11° 269° (W) 22:36:55 435.675
CUSAT 1 26 Nov 22:39:23 22:40:48 11° 76° (ENE) 22:42:17 437.405
ISS 26 Nov 22:40:30 22:43:46 89° 136° (SE) 22:47:04 145.825
ANTELSAT 26 Nov 22:42:28 22:46:50 50° 100° (E) 22:51:18 437.575/2403.000
ZACube-1 26 Nov 22:47:22 22:50:39 22° 264° (W) 22:53:53 437.345
POLYITAN 1 26 Nov 22:50:40 22:54:40 40° 99° (E) 22:58:38 437.675
VELOX 1 26 Nov 22:50:43 22:54:47 34° 262° (W) 22:58:51 145.980
ESTCUBE 1 26 Nov 22:51:49 22:56:22 82° 77° (ENE) 23:00:56 437.505/2401.250
QB50P2 26 Nov 22:52:19 22:56:21 42° 99° (E) 23:00:21 145.880/145.840
JUGNU 26 Nov 22:54:39 22:58:29 18° 168° (SSE) 23:02:20 437.505
DUCHIFAT 1 26 Nov 22:57:44 23:01:49 48° 100° (E) 23:05:53 145.980
TISAT 1 26 Nov 22:59:45 23:02:56 21° 70° (ENE) 23:06:08 437.305
DANDE 26 Nov 23:06:55 23:10:24 18° 79° (E) 23:14:31 436.750
RS-15 26 Nov 23:07:31 23:14:41 18° 35° (NE) 23:21:58 29.354- 29.394
SRMSAT 26 Nov 23:08:53 23:10:45 11° 162° (SSE) 23:12:36 437.500
SPROUT 26 Nov 23:11:56 23:15:29 25° 71° (ENE) 23:19:01 437.525
NANOSAT C BR1 26 Nov 23:17:12 23:21:25 89° 102° (ESE) 23:25:38 145.865
AISAT 26 Nov 23:18:58 23:21:47 16° 265° (W) 23:24:36 437.250
CUBEBUG 1 26 Nov 23:26:58 23:31:07 38° 261° (W) 23:35:16 437.445
QB50P1 26 Nov 23:27:15 23:31:27 68° 284° (WNW) 23:35:38 145.935-145.965
BUGSAT 1 26 Nov 23:33:18 23:37:21 70° 284° (WNW) 23:41:21 437.445
TIGRISAT 26 Nov 23:36:18 23:40:24 37° 287° (WNW) 23:44:36 435.000
UNISAT 6 26 Nov 23:50:51 23:54:32 26° 289° (WNW) 23:58:17 437.425
POPSAT HIP 1 26 Nov 23:52:32 23:56:19 33° 287° (WNW) 00:00:05 437.405
ITUPSAT 1 27 Nov 00:11:25 00:14:51 20° 68° (ENE) 00:18:17 437.325
MaSat-1 27 Nov 00:11:28 00:12:00 11° 62° (ENE) 00:12:31 437.345
CUSAT 1 27 Nov 00:18:37 00:23:47 78° 263° (W) 00:30:41 437.405
ISS 27 Nov 00:20:10 00:20:50 10° 331° (NNW) 00:21:30 145.825
SWISSCUBE 27 Nov 00:21:16 00:25:19 28° 70° (ENE) 00:29:23 437.505
ANTELSAT 27 Nov 00:21:22 00:23:12 12° 293° (WNW) 00:25:02 437.575/2403.000
POLYITAN 1 27 Nov 00:28:14 00:30:14 13° 292° (WNW) 00:32:14 437.675
AUBIESAT-1 27 Nov 00:28:23 00:32:14 49° 69° (ENE) 00:36:27 437.475
QB50P2 27 Nov 00:30:01 00:31:51 13° 293° (WNW) 00:33:41 145.880/145.840
M-CUBED/EXP-1 PRIME 27 Nov 00:34:13 00:38:08 66° 71° (ENE) 00:42:27 437.505
TISAT 1 27 Nov 00:35:04 00:38:36 25° 263° (W) 00:42:09 437.305
DUCHIFAT 1 27 Nov 00:36:06 00:37:13 11° 293° (WNW) 00:38:20 145.980
JUGNU 27 Nov 00:42:17 00:46:54 24° 178° (S) 00:51:32 437.505
SPROUT 27 Nov 00:48:10 00:51:28 21° 264° (W) 00:54:47 437.525
DANDE 27 Nov 00:48:51 00:53:41 47° 264° (W) 01:00:06 436.750
BEESAT 27 Nov 00:51:25 00:56:04 56° 74° (ENE) 01:00:46 436.000
SRMSAT 27 Nov 00:54:57 00:59:17 21° 171° (S) 01:03:37 437.500
KKS-1 27 Nov 01:05:05 01:07:14 13° 67° (ENE) 01:09:22 437.445
Oscar 19 27 Nov 01:08:50 01:13:14 28° 97° (E) 01:17:38 437.125/150
RS-15 27 Nov 01:18:15 01:29:32 68° 60° (ENE) 01:41:18 29.354- 29.394
MaSat-1 27 Nov 01:45:36 01:46:20 11° 253° (WSW) 01:47:05 437.345
ITUPSAT 1 27 Nov 01:48:05 01:52:27 35° 262° (W) 01:56:51 437.325
STARS 27 Nov 01:56:40 02:00:40 35° 72° (ENE) 02:04:39 437.465
SWISSCUBE 27 Nov 01:59:15 02:03:05 24° 264° (W) 02:06:58 437.505
ITAMSAT 1 27 Nov 02:03:52 02:08:37 36° 99° (E) 02:13:19 435.822/435.867
YUBILEINY 27 Nov 02:08:40 02:17:05 53° 90° (E) 02:25:29 435.215
JUGNU 27 Nov 02:31:04 02:35:21 21° 188° (S) 02:39:39 437.505
BEESAT 27 Nov 02:32:36 02:34:11 12° 267° (W) 02:35:47 436.000
KKS-1 27 Nov 02:39:11 02:43:27 45° 260° (W) 02:47:43 437.445
Gurwin Techsat 1B 27 Nov 02:41:43 02:46:52 50° 100° (E) 02:51:59 435.225
SRMSAT 27 Nov 02:43:11 02:47:53 24° 181° (S) 02:52:36 437.500
Oscar 19 27 Nov 02:48:07 02:52:26 28° 290° (WNW) 02:56:45 437.125/150
SO-50 27 Nov 03:01:29 03:05:49 53° 115° (ESE) 03:10:17 436.795
AO-7 27 Nov 03:24:53 03:31:16 24° 96° (E) 03:37:35 29.400- 29.500
RS-15 27 Nov 03:31:59 03:41:02 29° 256° (WSW) 03:50:27 29.354- 29.394
STARS 27 Nov 03:34:31 03:37:12 16° 265° (W) 03:39:53 437.465
ITAMSAT 1 27 Nov 03:43:58 03:47:49 22° 292° (WNW) 03:51:40 435.822/435.867
PCSat 27 Nov 03:44:07 03:46:34 13° 50° (NE) 03:48:59 145.827
MOZHAYETS 4 27 Nov 03:52:03 03:55:39 23° 70° (ENE) 03:59:18
HORYU 2 27 Nov 03:52:32 03:56:59 63° 285° (WNW) 04:01:26 437.375
YUBILEINY 27 Nov 04:06:52 04:14:07 28° 286° (WNW) 04:21:24 435.215
JUGNU 27 Nov 04:21:49 04:23:44 12° 197° (SSW) 04:25:38 437.505
Gurwin Techsat 1B 27 Nov 04:23:06 04:26:22 17° 294° (WNW) 04:29:38 435.225
SRMSAT 27 Nov 04:32:30 04:36:29 18° 191° (SSW) 04:40:28 437.500
PRISM 27 Nov 04:41:33 04:43:32 13° 67° (ENE) 04:45:31 437.425
SO-50 27 Nov 04:44:09 04:46:41 15° 311° (NW) 04:49:16 436.795
BEESAT 3 27 Nov 04:45:20 04:49:00 29° 56° (NE) 04:52:37 437.485
BEESAT 2 27 Nov 05:01:31 05:05:28 39° 58° (ENE) 05:09:22 435.950
ISS 27 Nov 05:13:38 05:15:28 14° 32° (NNE) 05:17:18 145.825
AO-7 27 Nov 05:16:11 05:24:23 63° 291° (WNW) 05:32:35 29.400- 29.500
PCSat 27 Nov 05:25:08 05:30:34 79° 247° (WSW) 05:35:57 145.827
MOZHAYETS 4 27 Nov 05:28:54 05:32:43 26° 264° (W) 05:36:35
JAS-2 27 Nov 05:31:45 05:38:36 75° 102° (ESE) 05:44:35 435.910
CUTE-I 27 Nov 05:33:49 05:37:06 16° 94° (E) 05:40:21 437.470
CUBESAT XI-V 27 Nov 05:36:44 05:40:20 22° 70° (ENE) 05:43:56 437.345
AIST 2 27 Nov 05:41:01 05:45:13 52° 60° (ENE) 05:49:20 435.215
O/OREOS (USA 219) 27 Nov 05:49:40 05:54:09 79° 289° (WNW) 05:58:38 437.305
PRISM 27 Nov 06:14:43 06:18:40 40° 261° (W) 06:22:40 437.425
BEESAT 3 27 Nov 06:24:01 06:26:59 19° 250° (WSW) 06:29:56 437.485
Cubesat XI-IV 27 Nov 06:31:02 06:36:20 67° 102° (ESE) 06:41:36 437.490
STRAND 1 27 Nov 06:34:25 06:39:35 87° 257° (WSW) 06:44:45 437.568
BEESAT 2 27 Nov 06:41:13 06:43:22 14° 252° (WSW) 06:45:30 435.950
AIST 1 27 Nov 06:42:22 06:46:34 46° 81° (E) 06:50:43
ISS 27 Nov 06:49:07 06:52:21 54° 227° (SW) 06:55:34 145.825
CUTE-I 27 Nov 07:12:16 07:17:21 48° 287° (WNW) 07:22:24 437.470
CUBESAT XI-V 27 Nov 07:13:27 07:17:33 30° 263° (W) 07:21:41 437.345
AO-7 27 Nov 07:14:14 07:15:30 10° 309° (NW) 07:16:46 29.400- 29.500
JAS-2 27 Nov 07:18:56 07:22:37 16° 300° (WNW) 07:26:07 435.910
AIST 2 27 Nov 07:22:21 07:23:19 11° 253° (WSW) 07:24:17 435.215
GONETS M04 27 Nov 07:58:50 08:07:23 59° 91° (E) 08:15:59
Cubesat XI-IV 27 Nov 08:13:36 08:15:47 13° 296° (WNW) 08:17:57 437.490
HO-68 27 Nov 08:14:01 08:19:34 24° 96° (E) 08:25:03 435.675
AIST 1 27 Nov 08:23:02 08:23:42 10° 275° (W) 08:24:21
CANX-2 27 Nov 08:27:59 08:31:18 22° 96° (E) 08:34:37 2200.000
BRITE-PL 27 Nov 08:28:42 08:31:37 18° 96° (E) 08:34:35 437.365/2234.400
COMPASS 1 27 Nov 08:29:26 08:31:42 14° 94° (E) 08:33:57 437.405
DOVE 4 27 Nov 08:43:49 08:46:08 14° 95° (E) 08:48:28 437.250
CUTE 1.7 & AOD 2 27 Nov 09:01:44 09:05:55 51° 100° (E) 09:10:06 437.475
CINEMA 3 27 Nov 09:09:25 09:12:17 17° 96° (E) 09:15:12 145.822/145.860
UNISAT 6 27 Nov 09:11:33 09:13:00 12° 67° (ENE) 09:14:27 437.425
